Location: Fauquembergues
(50.6005°N, 2.0987°E)
Time: 08:43:44
(UTC+00:00)

Cosmos 676 Rocket - Pass Details

Date: 14 July 2020
Orbit: 754 x 785 km, 74.0° (Epoch: 14 August)

Event Time Altitude Azimuth Distance (km) Brightness Sun altitude
Exits shadow 02:57:00 - 222° (SW) 2,355 5.8 -7.7°
Reaches altitude 10° 02:57:07 10° 223° (SW) 2,309 5.8 -7.7°
Maximum altitude 03:02:15 53° 300° (WNW) 952 4.4 -7.1°
Drops below altitude 10° 03:07:28 10° 17° (NNE) 2,343 7.7 -6.6°
Sets 03:09:56 0° 23° (NNE) 3,279 8.8 -6.3°
